Regional Weather Roundup
Issued by NWS

Home | Current Version | Previous Version | Text Only | Print | Product List | Glossary Off
Versions: 1 2 3 4 5 6 7 8 9 10 11 12 13 14 15 16 17 18 19 20 21 22 23 24 25 26 27 28 29 30 31 32 33 34 35 36 37 38 39 40 41 42 43 44 45 46 47 48 49 50

535
ASUS43 KDMX 201806
RWRIA

WEATHER ROUNDUP FOR IOWA
NATIONAL WEATHER SERVICE DES MOINES IA
100 PM CDT FRI OCT 20 2017

NOTE: "FAIR" INDICATES FEW OR NO CLOUDS BELOW 12,000 FEET WITH NO
SIGNIFICANT WEATHER AND/OR OBSTRUCTIONS TO VISIBILITY.

* - THESE STATIONS ARE NOT NWS STATIONS...THUS NOT UNDER NWS
QUALITY CONTROL.  THEY ALSO DO NOT REPORT WEATHER SUCH
AS PRECIPITATION OR FOG.

IAZ001>003-012>014-020>022-031>034-043>046-201900-
   NORTHWEST IOWA

CITY           SKY/WX    TMP DP  RH WIND       PRES   REMARKS
CHEROKEE *     MOSUNNY   71  57  61 S22G29    29.81F
DENISON *      MOSUNNY   72  55  56 S22G32    29.86F
LE MARS *      MOSUNNY   73  55  53 S23G35    29.76F
ORANGE CITY *  SUNNY     72  57  60 S21G30    29.77F
SHELDON *      SUNNY     75  54  46 S17G31    29.76F
SIOUX CITY     SUNNY     73  56  54 S16G26    29.78F
6HR MIN TEMP:  53; 6HR MAX TEMP:  73;

SPENCER        MOSUNNY   74  54  49 S25G36    29.80F
6HR MIN TEMP:  54; 6HR MAX TEMP:  75;

STORM LAKE *   MOSUNNY   72  54  53 S25G33    29.83F
$$

IAZ055>058-069>071-079>083-090>094-201900-
   SOUTHWEST IOWA

CITY           SKY/WX    TMP DP  RH WIND       PRES   REMARKS
ATLANTIC *     CLOUDY    73  55  53 S18       29.89F
AUDUBON *      MOSUNNY   72  57  60 S18G26    29.90F
CLARINDA *     SUNNY     73  57  56 S16G28    29.93F
COUNCIL BLFS * MOSUNNY   73  59  60 S23G30    29.85F
CRESTON *      SUNNY     70  55  60 S18G26    29.96F
HARLAN  *      MOSUNNY   73  55  53 S23G35    29.89F
LAMONI         SUNNY     71  56  58 S16G22    29.98F
6HR MIN TEMP:  52; 6HR MAX TEMP:  71;

RED OAK *      CLOUDY    73  57  56 S18G25    29.89F
SHENANDOAH *   SUNNY     75  57  53 S17G26    29.89F
$$

IAZ047>049-059>061-072>074-084-201900-
   CENTRAL IOWA

CITY           SKY/WX    TMP DP  RH WIND       PRES   REMARKS
AMES           MOSUNNY   71  56  58 S15G22    29.94F
6HR MIN TEMP:  51; 6HR MAX TEMP:  71;

ANKENY *       PTSUNNY   70  54  56 S16       29.97F
BOONE *        PTSUNNY   72  54  53 S16       29.93F
CHARITON *     CLOUDY    72  54  53 S13       29.99F
DES MOINES     CLOUDY    71  53  52 S13G18    29.96F
6HR MIN TEMP:  55; 6HR MAX TEMP:  71;

GRINNELL*      CLOUDY    71  51  49 S12G17    30.02F
KNOXVILLE *    MOSUNNY   73  54  49 S15G21    29.98F
MARSHALLTOWN   CLOUDY    71  53  52 S16       29.97F
6HR MIN TEMP:  52; 6HR MAX TEMP:  72;

NEWTON *       MOSUNNY   72  54  53 S15G21    29.99F
PELLA *        CLOUDY    72  52  49 S13       30.01F
PERRY *          N/A     73  52  47 S15G25    29.92F
$$

IAZ004>006-015-016-023>025-035-036-201900-
   NORTH CENTRAL IOWA

CITY           SKY/WX    TMP DP  RH WIND       PRES   REMARKS
ALGONA *       CLOUDY    75  55  50 S21G30    29.86F
CLARION *      SUNNY     73  54  49 S20G29    29.91F
ESTHERVILLE    SUNNY     71  54  54 S21G31    29.82F
6HR MIN TEMP:  50; 6HR MAX TEMP:  73; 6HR PCP: TRACE;

FORT DODGE *   MOSUNNY   72  55  55 S16G25    29.90F
MASON CITY     CLOUDY    75  52  44 S20G25    29.92F
6HR MIN TEMP:  49; 6HR MAX TEMP:  75;

FOREST CITY *    N/A     70  52  52 S17G23    29.90F
WEBSTER CITY * MOSUNNY   73  54  49 S16G23    29.90F
IOWA FALLS *     N/A     73  53  50 S21       29.96F
$$

IAZ007>011-017>019-026>030-037>042-050>054-066-201900-
   NORTHEAST IOWA

CITY           SKY/WX    TMP DP  RH WIND       PRES   REMARKS
CEDAR RAPIDS   SUNNY     73  53  49 S13       30.02F
6HR MIN TEMP:  49; 6HR MAX TEMP:  73;

CHARLES CITY * CLOUDY    75  46  35 S15G28    29.95F
CLINTON *      SUNNY     75  55  49 S9        30.07F
DECORAH *      SUNNY     73  50  43 S9G18     29.97F
DUBUQUE        SUNNY     71  54  54 S12       30.05F
6HR MIN TEMP:  51; 6HR MAX TEMP:  71;

MONTICELLO *   SUNNY     73  52  46 S12G18    30.03F
OELWEIN *      SUNNY     73  50  43 S16       29.99F
WATERLOO       SUNNY     74  47  38 S18       29.97F
6HR MIN TEMP:  47; 6HR MAX TEMP:  74;

$$

IAZ064-065-067-068-078-201900-
   EAST CENTRAL IOWA

CITY           SKY/WX    TMP DP  RH WIND       PRES   REMARKS
DAVENPORT      SUNNY     74  51  44 S12       30.09F
6HR MIN TEMP:  53; 6HR MAX TEMP:  74;

IOWA CITY      SUNNY     73  53  49 S12       30.06F
6HR MIN TEMP:  46; 6HR MAX TEMP:  74;

MUSCATINE *    SUNNY     75  52  43 S13       30.06F
QUAD CITIES    SUNNY     75  50  41 SW10      30.07F
6HR MIN TEMP:  55; 6HR MAX TEMP:  76;

$$

IAZ062-063-075>077-085>089-095>099-201900-
   SOUTHEAST IOWA

CITY           SKY/WX    TMP DP  RH WIND       PRES   REMARKS
BURLINGTON     SUNNY     73  56  54 S12       30.08F
6HR MIN TEMP:  52; 6HR MAX TEMP:  73;

FAIRFIELD *    PTSUNNY   70  50  49 S17       30.05F
FORT MADISON * SUNNY     73  54  49 SW12      30.09F
KEOKUK *       MOSUNNY   72  55  56 S13       30.08F
OSKALOOSA *      N/A     70  53  53 S17       30.03F
OTTUMWA        MOSUNNY   72  53  51 S14       30.03F
6HR MIN TEMP:  52; 6HR MAX TEMP:  72;

WASHINGTON *   MOSUNNY   73  52  46 S13       30.06F
$$

ABBREVIATIONS USED IN REMARKS
   TC - TEMPERATURES IN CELSIUS
  WCI - WIND CHILL INDEX
   HX - HEAT INDEX
  VSB - VISIBILITY
$$





USA.gov is the U.S. government's official web portal to all federal, state and local government web resources and services.